Time,TemperatureF,DewpointF,PressureIn,WindDirection,WindDirectionDegrees,WindSpeedMPH,WindSpeedGustMPH,Humidity,HourlyPrecipIn,Conditions,Clouds,dailyrainin,SoftwareType,DateUTC
2013-07-07 00:03:00,77.5,76.0,30.13,ENE,68,0.0,-999.0,94,-99.99,,,0.00,weatherlink.com 1.10,2013-07-07 04:03:00,
2013-07-07 00:18:00,77.5,75.0,30.13,ENE,71,0.0,-999.0,93,-99.99,,,0.00,weatherlink.com 1.10,2013-07-07 04:18:00,
2013-07-07 00:33:00,77.6,76.0,30.13,NNE,16,2.0,-999.0,93,-99.99,,,0.00,weatherlink.com 1.10,2013-07-07 04:33:00,
2013-07-07 00:48:00,77.5,75.0,30.13,ENE,64,0.0,-999.0,93,-99.99,,,0.00,weatherlink.com 1.10,2013-07-07 04:48:00,
2013-07-07 01:03:00,77.3,75.0,30.13,ENE,66,0.0,-999.0,93,-99.99,,,0.00,weatherlink.com 1.10,2013-07-07 05:03:00,
2013-07-07 01:18:00,77.1,75.0,30.12,ENE,64,0.0,-999.0,93,-99.99,,,0.00,weatherlink.com 1.10,2013-07-07 05:18:00,
2013-07-07 01:33:00,76.9,75.0,30.13,ENE,65,0.0,-999.0,94,-99.99,,,0.00,weatherlink.com 1.10,2013-07-07 05:33:00,
2013-07-07 01:48:00,76.5,75.0,30.12,ENE,67,0.0,-999.0,94,-99.99,,,0.00,weatherlink.com 1.10,2013-07-07 05:48:00,
2013-07-07 02:03:00,76.3,75.0,30.12,ENE,67,0.0,-999.0,95,-99.99,,,0.00,weatherlink.com 1.10,2013-07-07 06:03:00,
2013-07-07 02:18:00,75.9,74.0,30.12,ENE,65,0.0,-999.0,95,-99.99,,,0.00,weatherlink.com 1.10,2013-07-07 06:18:00,
2013-07-07 02:33:00,75.6,74.0,30.11,ENE,66,0.0,-999.0,96,-99.99,,,0.00,weatherlink.com 1.10,2013-07-07 06:33:00,
2013-07-07 02:48:00,75.6,74.0,30.11,ENE,65,0.0,-999.0,96,-99.99,,,0.00,weatherlink.com 1.10,2013-07-07 06:48:00,
2013-07-07 03:03:00,75.5,74.0,30.10,ENE,67,0.0,-999.0,96,-99.99,,,0.00,weatherlink.com 1.10,2013-07-07 07:03:00,
2013-07-07 03:18:00,75.1,74.0,30.10,ENE,67,0.0,-999.0,96,-99.99,,,0.00,weatherlink.com 1.10,2013-07-07 07:18:00,
2013-07-07 03:33:00,75.0,74.0,30.10,ENE,67,0.0,-999.0,97,-99.99,,,0.00,weatherlink.com 1.10,2013-07-07 07:33:00,
2013-07-07 03:48:00,74.7,74.0,30.10,ENE,67,0.0,-999.0,97,-99.99,,,0.00,weatherlink.com 1.10,2013-07-07 07:48:00,
2013-07-07 04:03:00,74.6,74.0,30.10,ENE,67,0.0,-999.0,97,-99.99,,,0.00,weatherlink.com 1.10,2013-07-07 08:03:00,
2013-07-07 04:18:00,74.3,73.0,30.10,ENE,67,0.0,-999.0,97,-99.99,,,0.00,weatherlink.com 1.10,2013-07-07 08:18:00,
2013-07-07 04:33:00,74.2,73.0,30.10,ENE,67,0.0,-999.0,97,-99.99,,,0.00,weatherlink.com 1.10,2013-07-07 08:33:00,
2013-07-07 04:48:00,73.9,73.0,30.10,ENE,67,0.0,-999.0,97,-99.99,,,0.00,weatherlink.com 1.10,2013-07-07 08:48:00,
2013-07-07 05:03:00,73.7,73.0,30.10,ENE,67,0.0,-999.0,97,-99.99,,,0.00,weatherlink.com 1.10,2013-07-07 09:03:00,
2013-07-07 05:18:00,73.6,73.0,30.10,ENE,67,0.0,-999.0,98,-99.99,,,0.00,weatherlink.com 1.10,2013-07-07 09:18:00,
2013-07-07 05:33:00,73.4,73.0,30.10,ENE,67,0.0,-999.0,98,-99.99,,,0.00,weatherlink.com 1.10,2013-07-07 09:33:00,
2013-07-07 05:40:00,73.6,73.0,30.11,ENE,63,0.0,0.0,98,0.00,,,0.00,Wunderground v.1.15,2013-07-07 09:40:00,
2013-07-07 05:45:00,73.9,73.3,30.10,ENE,62,0.0,0.0,98,0.00,,,0.00,Wunderground v.1.15,2013-07-07 09:45:00,
2013-07-07 05:55:00,73.8,73.2,30.10,ENE,63,0.0,0.0,98,0.00,,,0.00,Wunderground v.1.15,2013-07-07 09:55:00,
2013-07-07 06:04:00,73.5,73.0,30.10,ENE,67,0.0,-999.0,98,-99.99,,,0.00,weatherlink.com 1.10,2013-07-07 10:04:00,
2013-07-07 06:10:00,73.6,73.0,30.10,ENE,62,0.0,0.0,98,0.00,,,0.00,Wunderground v.1.15,2013-07-07 10:10:00,
2013-07-07 06:15:00,73.6,73.0,30.10,ENE,63,0.0,0.0,98,0.00,,,0.00,Wunderground v.1.15,2013-07-07 10:15:00,
2013-07-07 06:20:00,73.6,73.0,30.10,ENE,60,0.0,0.0,98,0.00,,,0.00,Wunderground v.1.15,2013-07-07 10:20:00,
2013-07-07 06:25:00,73.6,73.0,30.10,ENE,60,0.0,0.0,98,0.00,,,0.00,Wunderground v.1.15,2013-07-07 10:25:00,
2013-07-07 06:30:00,73.4,72.8,30.10,ENE,60,0.0,0.0,98,0.00,,,0.00,Wunderground v.1.15,2013-07-07 10:30:00,
2013-07-07 06:35:00,73.4,72.8,30.10,ENE,63,0.0,0.0,98,0.00,,,0.00,Wunderground v.1.15,2013-07-07 10:35:00,
2013-07-07 06:45:00,73.4,72.8,30.10,ENE,63,0.0,0.0,98,0.00,,,0.00,Wunderground v.1.15,2013-07-07 10:45:00,
2013-07-07 06:50:00,73.7,73.4,30.11,ENE,62,0.0,0.0,99,0.00,,,0.00,Wunderground v.1.15,2013-07-07 10:50:00,
2013-07-07 06:55:00,73.8,73.2,30.11,ENE,63,0.0,0.0,98,0.00,,,0.00,Wunderground v.1.15,2013-07-07 10:55:00,
2013-07-07 07:00:00,73.8,73.2,30.11,ENE,63,0.0,0.0,98,0.00,,,0.00,Wunderground v.1.15,2013-07-07 11:00:00,
2013-07-07 07:05:00,73.9,73.3,30.11,ENE,63,0.0,0.0,98,0.00,,,0.00,Wunderground v.1.15,2013-07-07 11:05:00,
2013-07-07 07:10:00,73.9,73.3,30.11,ENE,60,0.0,0.0,98,0.00,,,0.00,Wunderground v.1.15,2013-07-07 11:10:00,
2013-07-07 07:15:00,74.0,73.4,30.12,ENE,61,0.0,0.0,98,0.00,,,0.00,Wunderground v.1.15,2013-07-07 11:15:00,
2013-07-07 07:25:00,74.1,73.5,30.12,ENE,60,0.0,0.0,98,0.00,,,0.00,Wunderground v.1.15,2013-07-07 11:25:00,
2013-07-07 07:30:00,74.1,73.5,30.12,ENE,63,0.0,0.0,98,0.00,,,0.00,Wunderground v.1.15,2013-07-07 11:30:00,
2013-07-07 07:35:00,74.3,74.0,30.13,ENE,62,0.0,0.0,99,0.00,,,0.00,Wunderground v.1.15,2013-07-07 11:35:00,
2013-07-07 07:40:00,74.5,74.2,30.13,ENE,62,0.0,0.0,99,0.00,,,0.00,Wunderground v.1.15,2013-07-07 11:40:00,
2013-07-07 07:45:00,74.7,74.4,30.13,ENE,63,0.0,0.0,99,0.00,,,0.00,Wunderground v.1.15,2013-07-07 11:45:00,
2013-07-07 07:50:00,75.0,74.7,30.13,ENE,62,0.0,0.0,99,0.00,,,0.00,Wunderground v.1.15,2013-07-07 11:50:00,
2013-07-07 07:55:00,75.1,74.8,30.13,ENE,62,0.0,0.0,99,0.00,,,0.00,Wunderground v.1.15,2013-07-07 11:55:00,
2013-07-07 08:04:00,75.5,75.0,30.13,ENE,67,0.0,-999.0,99,-99.99,,,0.00,weatherlink.com 1.10,2013-07-07 12:04:00,
2013-07-07 08:10:00,76.3,76.0,30.14,SSE,150,0.0,0.0,99,0.00,,,0.00,Wunderground v.1.15,2013-07-07 12:10:00,
2013-07-07 08:15:00,76.5,76.2,30.14,NW,312,0.0,0.0,99,0.00,,,0.00,Wunderground v.1.15,2013-07-07 12:15:00,
2013-07-07 08:20:00,76.7,76.4,30.14,NW,312,0.0,0.0,99,0.00,,,0.00,Wunderground v.1.15,2013-07-07 12:20:00,
2013-07-07 08:25:00,76.9,76.3,30.14,East,96,0.0,0.0,98,0.00,,,0.00,Wunderground v.1.15,2013-07-07 12:25:00,
2013-07-07 08:30:00,77.1,76.5,30.15,East,82,0.0,0.0,98,0.00,,,0.00,Wunderground v.1.15,2013-07-07 12:30:00,
2013-07-07 08:35:00,77.3,76.7,30.15,East,81,0.0,0.0,98,0.00,,,0.00,Wunderground v.1.15,2013-07-07 12:35:00,
2013-07-07 08:45:00,78.6,77.7,30.15,NNE,25,0.0,0.0,97,0.00,,,0.00,Wunderground v.1.15,2013-07-07 12:45:00,
2013-07-07 08:50:00,79.6,77.4,30.15,NE,40,0.0,0.0,93,0.00,,,0.00,Wunderground v.1.15,2013-07-07 12:50:00,
2013-07-07 08:55:00,80.5,77.3,30.15,East,96,0.0,0.0,90,0.00,,,0.00,Wunderground v.1.15,2013-07-07 12:55:00,
2013-07-07 09:00:00,81.2,77.6,30.16,East,87,0.0,1.0,89,0.00,,,0.00,Wunderground v.1.15,2013-07-07 13:00:00,
2013-07-07 09:05:00,81.6,77.7,30.16,NE,51,0.0,2.0,88,0.00,,,0.00,Wunderground v.1.15,2013-07-07 13:05:00,
2013-07-07 09:10:00,81.9,77.3,30.16,NNE,16,1.0,1.0,86,0.00,,,0.00,Wunderground v.1.15,2013-07-07 13:10:00,
2013-07-07 09:15:00,82.7,78.1,30.16,ENE,66,0.0,1.0,86,0.00,,,0.00,Wunderground v.1.15,2013-07-07 13:15:00,
2013-07-07 09:20:00,83.3,78.0,30.16,SE,135,0.0,0.0,84,0.00,,,0.00,Wunderground v.1.15,2013-07-07 13:20:00,
2013-07-07 09:25:00,83.3,77.2,30.16,West,281,1.0,1.0,82,0.00,,,0.00,Wunderground v.1.15,2013-07-07 13:25:00,
2013-07-07 09:34:00,83.4,78.0,30.15,SE,132,0.0,-999.0,84,-99.99,,,0.00,weatherlink.com 1.10,2013-07-07 13:34:00,
2013-07-07 09:40:00,83.7,77.6,30.16,SE,125,1.0,1.0,82,0.00,,,0.00,Wunderground v.1.15,2013-07-07 13:40:00,
2013-07-07 09:45:00,84.0,77.5,30.16,ESE,115,1.0,1.0,81,0.00,,,0.00,Wunderground v.1.15,2013-07-07 13:45:00,
2013-07-07 09:50:00,84.2,77.4,30.16,SSW,205,0.0,2.0,80,0.00,,,0.00,Wunderground v.1.15,2013-07-07 13:50:00,
2013-07-07 09:55:00,84.2,77.7,30.16,ENE,73,1.0,4.0,81,0.00,,,0.00,Wunderground v.1.15,2013-07-07 13:55:00,
2013-07-07 10:04:00,84.2,78.0,30.15,NW,306,0.0,-999.0,81,-99.99,,,0.00,weatherlink.com 1.10,2013-07-07 14:04:00,
2013-07-07 10:19:00,84.5,78.0,30.15,WNW,302,1.0,-999.0,80,-99.99,,,0.00,weatherlink.com 1.10,2013-07-07 14:19:00,
2013-07-07 10:34:00,84.5,78.0,30.15,WSW,244,1.0,-999.0,80,-99.99,,,0.00,weatherlink.com 1.10,2013-07-07 14:34:00,
2013-07-07 10:49:00,85.1,77.0,30.15,East,98,4.0,-999.0,77,-99.99,,,0.00,weatherlink.com 1.10,2013-07-07 14:49:00,
2013-07-07 11:04:00,84.7,77.0,30.16,NNW,329,0.0,-999.0,77,-99.99,,,0.00,weatherlink.com 1.10,2013-07-07 15:04:00,
2013-07-07 11:19:00,85.2,78.0,30.15,ESE,107,0.0,-999.0,78,-99.99,,,0.00,weatherlink.com 1.10,2013-07-07 15:19:00,
2013-07-07 11:34:00,85.3,78.0,30.16,ESE,105,2.0,-999.0,79,-99.99,,,0.00,weatherlink.com 1.10,2013-07-07 15:34:00,
2013-07-07 11:49:00,84.9,77.0,30.16,ENE,64,0.0,-999.0,78,-99.99,,,0.00,weatherlink.com 1.10,2013-07-07 15:49:00,
2013-07-07 12:04:00,84.9,78.0,30.16,SE,126,1.0,-999.0,80,-99.99,,,0.00,weatherlink.com 1.10,2013-07-07 16:04:00,
2013-07-07 12:19:00,85.5,78.0,30.16,South,181,1.0,-999.0,79,-99.99,,,0.00,weatherlink.com 1.10,2013-07-07 16:19:00,
2013-07-07 12:34:00,85.6,78.0,30.16,East,98,2.0,-999.0,77,-99.99,,,0.00,weatherlink.com 1.10,2013-07-07 16:34:00,
2013-07-07 12:49:00,84.2,78.0,30.15,ENE,73,1.0,-999.0,81,-99.99,,,0.00,weatherlink.com 1.10,2013-07-07 16:49:00,
2013-07-07 13:04:00,84.7,77.0,30.15,ESE,123,5.0,-999.0,78,-99.99,,,0.00,weatherlink.com 1.10,2013-07-07 17:04:00,
2013-07-07 13:19:00,85.5,78.0,30.15,NNE,26,1.0,-999.0,78,-99.99,,,0.00,weatherlink.com 1.10,2013-07-07 17:19:00,
2013-07-07 13:34:00,84.4,77.0,30.15,East,94,1.0,-999.0,77,-99.99,,,0.00,weatherlink.com 1.10,2013-07-07 17:34:00,
2013-07-07 13:49:00,83.2,76.0,30.15,East,84,0.0,-999.0,80,-99.99,,,0.00,weatherlink.com 1.10,2013-07-07 17:49:00,
2013-07-07 14:04:00,84.9,77.0,30.14,NE,55,4.0,-999.0,77,-99.99,,,0.00,weatherlink.com 1.10,2013-07-07 18:04:00,
2013-07-07 14:19:00,85.6,77.0,30.13,ENE,69,6.0,-999.0,75,-99.99,,,0.00,weatherlink.com 1.10,2013-07-07 18:19:00,
2013-07-07 14:34:00,85.6,77.0,30.13,SSW,210,0.0,-999.0,76,-99.99,,,0.00,weatherlink.com 1.10,2013-07-07 18:34:00,
2013-07-07 14:49:00,85.5,77.0,30.13,NNE,25,1.0,-999.0,75,-99.99,,,0.00,weatherlink.com 1.10,2013-07-07 18:49:00,
2013-07-07 15:04:00,85.8,77.0,30.12,ENE,77,0.0,-999.0,74,-99.99,,,0.00,weatherlink.com 1.10,2013-07-07 19:04:00,
2013-07-07 15:19:00,85.7,78.0,30.12,ENE,76,5.0,-999.0,78,-99.99,,,0.00,weatherlink.com 1.10,2013-07-07 19:19:00,
2013-07-07 15:34:00,86.1,77.0,30.12,WSW,239,0.0,-999.0,75,-99.99,,,0.00,weatherlink.com 1.10,2013-07-07 19:34:00,
2013-07-07 15:49:00,85.5,77.0,30.11,East,91,0.0,-999.0,75,-99.99,,,0.00,weatherlink.com 1.10,2013-07-07 19:49:00,
2013-07-07 16:04:00,85.1,76.0,30.11,ESE,109,5.0,-999.0,74,-99.99,,,0.00,weatherlink.com 1.10,2013-07-07 20:04:00,
2013-07-07 16:19:00,85.1,76.0,30.11,ENE,74,7.0,-999.0,75,-99.99,,,0.00,weatherlink.com 1.10,2013-07-07 20:19:00,
2013-07-07 16:34:00,84.7,76.0,30.10,SSW,203,0.0,-999.0,76,-99.99,,,0.00,weatherlink.com 1.10,2013-07-07 20:34:00,
2013-07-07 16:49:00,84.5,76.0,30.10,WSW,239,0.0,-999.0,76,-99.99,,,0.00,weatherlink.com 1.10,2013-07-07 20:49:00,
2013-07-07 17:04:00,84.1,76.0,30.09,NW,315,0.0,-999.0,76,-99.99,,,0.00,weatherlink.com 1.10,2013-07-07 21:04:00,
2013-07-07 17:19:00,83.7,76.0,30.09,ENE,70,0.0,-999.0,77,-99.99,,,0.00,weatherlink.com 1.10,2013-07-07 21:19:00,
2013-07-07 17:34:00,83.1,76.0,30.09,East,90,4.0,-999.0,79,-99.99,,,0.00,weatherlink.com 1.10,2013-07-07 21:34:00,
2013-07-07 17:49:00,82.5,76.0,30.09,SE,128,0.0,-999.0,80,-99.99,,,0.00,weatherlink.com 1.10,2013-07-07 21:49:00,
2013-07-07 18:04:00,82.2,76.0,30.09,ESE,103,0.0,-999.0,81,-99.99,,,0.00,weatherlink.com 1.10,2013-07-07 22:04:00,
2013-07-07 18:19:00,81.9,76.0,30.09,NNE,19,0.0,-999.0,81,-99.99,,,0.00,weatherlink.com 1.10,2013-07-07 22:19:00,
2013-07-07 18:34:00,81.6,76.0,30.09,ESE,102,0.0,-999.0,82,-99.99,,,0.00,weatherlink.com 1.10,2013-07-07 22:34:00,
2013-07-07 18:49:00,81.3,75.0,30.09,ESE,105,2.0,-999.0,82,-99.99,,,0.00,weatherlink.com 1.10,2013-07-07 22:49:00,
2013-07-07 19:04:00,81.2,76.0,30.09,ENE,76,2.0,-999.0,84,-99.99,,,0.00,weatherlink.com 1.10,2013-07-07 23:04:00,
2013-07-07 19:19:00,80.9,76.0,30.09,ENE,59,5.0,-999.0,84,-99.99,,,0.00,weatherlink.com 1.10,2013-07-07 23:19:00,
2013-07-07 19:34:00,80.4,76.0,30.09,East,92,0.0,-999.0,85,-99.99,,,0.00,weatherlink.com 1.10,2013-07-07 23:34:00,
2013-07-07 19:49:00,80.0,76.0,30.09,ESE,123,0.0,-999.0,86,-99.99,,,0.00,weatherlink.com 1.10,2013-07-07 23:49:00,
2013-07-07 20:04:00,79.7,76.0,30.09,East,82,0.0,-999.0,87,-99.99,,,0.00,weatherlink.com 1.10,2013-07-08 00:04:00,
2013-07-07 20:19:00,79.1,75.0,30.10,ESE,103,0.0,-999.0,88,-99.99,,,0.00,weatherlink.com 1.10,2013-07-08 00:19:00,
2013-07-07 20:34:00,78.4,75.0,30.10,ENE,69,0.0,-999.0,89,-99.99,,,0.00,weatherlink.com 1.10,2013-07-08 00:34:00,
2013-07-07 20:49:00,78.1,75.0,30.11,East,89,0.0,-999.0,90,-99.99,,,0.00,weatherlink.com 1.10,2013-07-08 00:49:00,
2013-07-07 21:04:00,77.7,75.0,30.12,East,88,0.0,-999.0,91,-99.99,,,0.00,weatherlink.com 1.10,2013-07-08 01:04:00,
2013-07-07 21:19:00,77.6,75.0,30.12,East,86,0.0,-999.0,92,-99.99,,,0.00,weatherlink.com 1.10,2013-07-08 01:19:00,
2013-07-07 21:34:00,77.4,75.0,30.12,East,84,0.0,-999.0,93,-99.99,,,0.00,weatherlink.com 1.10,2013-07-08 01:34:00,
2013-07-07 21:49:00,77.2,75.0,30.13,East,86,0.0,-999.0,94,-99.99,,,0.00,weatherlink.com 1.10,2013-07-08 01:49:00,
2013-07-07 22:04:00,77.1,75.0,30.13,East,86,0.0,-999.0,94,-99.99,,,0.00,weatherlink.com 1.10,2013-07-08 02:04:00,
2013-07-07 22:19:00,77.1,76.0,30.13,East,86,0.0,-999.0,95,-99.99,,,0.00,weatherlink.com 1.10,2013-07-08 02:19:00,
2013-07-07 22:34:00,77.1,76.0,30.13,East,83,0.0,-999.0,95,-99.99,,,0.00,weatherlink.com 1.10,2013-07-08 02:34:00,
2013-07-07 22:50:00,77.3,76.0,30.13,East,84,0.0,-999.0,94,-99.99,,,0.00,weatherlink.com 1.10,2013-07-08 02:50:00,
2013-07-07 23:04:00,77.3,76.0,30.13,East,89,0.0,-999.0,94,-99.99,,,0.00,weatherlink.com 1.10,2013-07-08 03:04:00,
2013-07-07 23:19:00,77.2,75.0,30.13,East,89,0.0,-999.0,94,-99.99,,,0.00,weatherlink.com 1.10,2013-07-08 03:19:00,
2013-07-07 23:34:00,77.2,75.0,30.13,East,84,0.0,-999.0,94,-99.99,,,0.00,weatherlink.com 1.10,2013-07-08 03:34:00,
2013-07-07 23:49:00,77.3,76.0,30.14,ENE,69,0.0,-999.0,94,-99.99,,,0.00,weatherlink.com 1.10,2013-07-08 03:49:00,